Time,TemperatureF,DewpointF,PressureIn,WindDirection,WindDirectionDegrees,WindSpeedMPH,WindSpeedGustMPH,Humidity,HourlyPrecipIn,Conditions,Clouds,dailyrainin,SoftwareType,DateUTC
2013-03-11 15:42:00,48.7,27.8,29.53,SSE,158,1.6,1.6,44,0.00,,OVC060,0.00,VWS V14.01,2013-03-11 19:42:00,
2013-03-11 15:43:00,48.7,27.8,29.53,ESE,112,0.9,1.6,44,0.00,,OVC060,0.00,VWS V14.01,2013-03-11 19:43:00,
2013-03-11 15:44:00,48.9,28.0,29.53,ESE,112,0.9,0.9,44,0.00,,OVC060,0.00,VWS V14.01,2013-03-11 19:44:00,
2013-03-11 15:45:00,48.9,28.0,29.53,WNW,292,4.3,4.3,44,0.00,,OVC060,0.00,VWS V14.01,2013-03-11 19:45:00,
2013-03-11 15:46:00,48.9,28.0,29.53,SW,225,1.3,4.3,44,0.00,,OVC060,0.00,VWS V14.01,2013-03-11 19:46:00,
2013-03-11 15:47:00,48.7,27.8,29.53,SSW,202,0.0,1.3,44,0.00,,OVC060,0.00,VWS V14.01,2013-03-11 19:47:00,
2013-03-11 15:48:00,48.7,27.8,29.53,WNW,292,1.3,1.3,44,0.00,,OVC060,0.00,VWS V14.01,2013-03-11 19:48:00,
2013-03-11 15:49:00,48.7,27.8,29.53,WNW,292,1.3,1.3,44,0.00,,OVC060,0.00,VWS V14.01,2013-03-11 19:49:00,
2013-03-11 15:50:00,48.7,27.8,29.53,SW,225,2.2,2.2,44,0.00,,OVC060,0.00,VWS V14.01,2013-03-11 19:50:00,
2013-03-11 15:51:00,48.7,27.8,29.53,WSW,248,0.0,2.2,44,0.00,,OVC060,0.00,VWS V14.01,2013-03-11 19:51:00,
2013-03-11 15:52:00,48.7,27.8,29.53,WSW,248,0.0,0.0,44,0.00,,OVC060,0.00,VWS V14.01,2013-03-11 19:52:00,
2013-03-11 15:53:00,48.6,27.6,29.53,South,180,1.3,1.3,44,0.00,,OVC060,0.00,VWS V14.01,2013-03-11 19:53:00,
2013-03-11 15:54:00,48.6,27.6,29.53,WSW,248,2.0,2.0,44,0.00,,OVC060,0.00,VWS V14.01,2013-03-11 19:54:00,
2013-03-11 15:55:00,48.6,27.6,29.53,NNW,338,3.4,3.4,44,0.00,,OVC060,0.00,VWS V14.01,2013-03-11 19:55:00,
2013-03-11 15:56:00,48.6,27.6,29.53,SSW,202,2.2,3.4,44,0.00,,OVC060,0.00,VWS V14.01,2013-03-11 19:56:00,
2013-03-11 15:57:00,48.6,27.6,29.53,SW,225,2.0,2.0,44,0.00,,OVC060,0.00,VWS V14.01,2013-03-11 19:57:00,
2013-03-11 15:58:00,48.7,27.8,29.53,SSW,202,0.0,2.0,44,0.00,,OVC060,0.00,VWS V14.01,2013-03-11 19:58:00,
2013-03-11 15:59:00,48.7,27.8,29.53,WSW,248,2.7,2.7,44,0.00,,OVC060,0.00,VWS V14.01,2013-03-11 19:59:00,
2013-03-11 16:00:00,48.6,27.6,29.53,West,270,0.0,2.7,44,0.00,,OVC060,0.00,VWS V14.01,2013-03-11 20:00:00,
2013-03-11 16:01:00,48.6,27.6,29.53,West,270,0.0,0.0,44,0.00,,OVC060,0.00,VWS V14.01,2013-03-11 20:01:00,
2013-03-11 16:02:00,48.6,27.6,29.53,South,180,2.7,2.7,44,0.00,,OVC060,0.00,VWS V14.01,2013-03-11 20:02:00,
2013-03-11 16:03:00,48.6,27.6,29.53,South,180,2.7,2.7,44,0.00,,OVC060,0.00,VWS V14.01,2013-03-11 20:03:00,
2013-03-11 16:04:00,48.6,27.6,29.53,West,270,0.0,2.7,44,0.00,,OVC060,0.00,VWS V14.01,2013-03-11 20:04:00,
2013-03-11 16:05:00,48.4,27.5,29.53,WNW,292,0.9,0.9,44,0.00,,OVC060,0.00,VWS V14.01,2013-03-11 20:05:00,
2013-03-11 16:06:00,48.4,27.5,29.53,WNW,292,0.9,0.9,44,0.00,,OVC060,0.00,VWS V14.01,2013-03-11 20:06:00,
2013-03-11 16:07:00,48.2,27.3,29.50,WSW,248,0.9,0.9,44,0.00,,OVC060,0.00,VWS V14.01,2013-03-11 20:07:00,
2013-03-11 16:08:00,48.2,27.3,29.50,WNW,292,2.7,2.7,44,0.00,,OVC060,0.00,VWS V14.01,2013-03-11 20:08:00,
2013-03-11 16:09:00,48.2,27.3,29.50,NNE,22,0.9,2.7,44,0.00,,OVC060,0.00,VWS V14.01,2013-03-11 20:09:00,
2013-03-11 16:10:00,48.2,27.3,29.50,NNW,338,0.0,0.9,44,0.00,,OVC060,0.00,VWS V14.01,2013-03-11 20:10:00,
2013-03-11 16:11:00,48.2,27.3,29.50,South,180,1.1,1.1,44,0.00,,OVC060,0.00,VWS V14.01,2013-03-11 20:11:00,
2013-03-11 16:12:00,48.2,27.3,29.50,WNW,292,2.7,2.7,44,0.00,,OVC060,0.00,VWS V14.01,2013-03-11 20:12:00,
2013-03-11 16:13:00,48.2,27.3,29.50,WNW,292,2.7,2.7,44,0.00,,OVC060,0.00,VWS V14.01,2013-03-11 20:13:00,
2013-03-11 16:14:00,48.0,27.7,29.50,WNW,292,0.9,2.7,45,0.00,,OVC060,0.00,VWS V14.01,2013-03-11 20:14:00,
2013-03-11 16:15:00,48.0,27.7,29.50,WSW,248,0.9,0.9,45,0.00,,OVC060,0.00,VWS V14.01,2013-03-11 20:15:00,
2013-03-11 16:16:00,48.0,27.7,29.50,WSW,248,0.0,0.9,45,0.00,,OVC060,0.00,VWS V14.01,2013-03-11 20:16:00,
2013-03-11 16:17:00,47.8,27.5,29.50,WSW,248,0.0,0.0,45,0.00,,OVC060,0.00,VWS V14.01,2013-03-11 20:17:00,
2013-03-11 16:18:00,47.8,27.5,29.50,WSW,248,0.0,0.0,45,0.00,,OVC060,0.00,VWS V14.01,2013-03-11 20:18:00,
2013-03-11 16:19:00,47.8,27.5,29.50,WSW,248,0.0,0.0,45,0.00,,OVC060,0.00,VWS V14.01,2013-03-11 20:19:00,
2013-03-11 16:20:00,47.8,27.5,29.50,WNW,292,3.6,3.6,45,0.00,,OVC060,0.00,VWS V14.01,2013-03-11 20:20:00,
2013-03-11 16:21:00,47.8,27.5,29.50,WNW,292,3.6,3.6,45,0.00,,OVC060,0.00,VWS V14.01,2013-03-11 20:21:00,
2013-03-11 16:22:00,47.8,27.5,29.50,SW,225,0.0,0.0,45,0.00,,OVC060,0.00,VWS V14.01,2013-03-11 20:22:00,
2013-03-11 16:23:00,47.8,27.5,29.50,WSW,248,0.0,0.0,45,0.00,,OVC060,0.00,VWS V14.01,2013-03-11 20:23:00,
2013-03-11 16:24:00,47.8,27.5,29.50,SW,225,2.0,2.0,45,0.00,,OVC060,0.00,VWS V14.01,2013-03-11 20:24:00,
2013-03-11 16:25:00,47.8,27.5,29.50,NE,45,1.1,2.0,45,0.00,,OVC060,0.00,VWS V14.01,2013-03-11 20:25:00,
2013-03-11 16:26:00,47.7,27.4,29.50,South,180,1.1,1.1,45,0.00,,OVC060,0.00,VWS V14.01,2013-03-11 20:26:00,
2013-03-11 16:27:00,47.7,27.4,29.50,ENE,68,1.1,1.6,45,0.00,,OVC060,0.00,VWS V14.01,2013-03-11 20:27:00,
2013-03-11 16:28:00,47.7,27.4,29.50,ENE,68,1.3,1.6,45,0.00,,OVC060,0.00,VWS V14.01,2013-03-11 20:28:00,
2013-03-11 16:29:00,47.7,27.4,29.50,South,180,0.0,1.3,45,0.00,,OVC060,0.00,VWS V14.01,2013-03-11 20:29:00,
2013-03-11 16:30:00,47.7,27.4,29.50,WSW,248,0.0,0.0,45,0.00,,OVC060,0.00,VWS V14.01,2013-03-11 20:30:00,
2013-03-11 16:31:00,47.5,27.2,29.50,WSW,248,0.0,0.0,45,0.00,,OVC060,0.00,VWS V14.01,2013-03-11 20:31:00,
2013-03-11 16:32:00,47.5,27.2,29.50,NNE,22,0.0,0.0,45,0.00,,OVC060,0.00,VWS V14.01,2013-03-11 20:32:00,
2013-03-11 16:33:00,47.5,27.2,29.50,WSW,248,0.0,0.0,45,0.00,,OVC060,0.00,VWS V14.01,2013-03-11 20:33:00,
2013-03-11 16:34:00,47.5,27.2,29.50,WSW,248,0.0,0.0,45,0.00,,OVC060,0.00,VWS V14.01,2013-03-11 20:34:00,
2013-03-11 16:35:00,47.5,27.2,29.50,SSW,202,0.0,0.0,45,0.00,,OVC060,0.00,VWS V14.01,2013-03-11 20:35:00,
2013-03-11 16:36:00,47.3,27.6,29.47,WSW,248,1.1,1.1,46,0.00,,OVC060,0.00,VWS V14.01,2013-03-11 20:36:00,
2013-03-11 16:37:00,47.3,27.6,29.47,WNW,292,0.0,0.0,46,0.00,,OVC060,0.00,VWS V14.01,2013-03-11 20:37:00,
2013-03-11 16:38:00,47.3,27.6,29.47,WNW,292,0.0,0.0,46,0.00,,OVC060,0.00,VWS V14.01,2013-03-11 20:38:00,
2013-03-11 16:39:00,47.3,27.6,29.47,West,270,0.0,0.0,46,0.00,,OVC060,0.00,VWS V14.01,2013-03-11 20:39:00,
2013-03-11 16:40:00,47.3,27.6,29.47,NW,315,0.0,0.0,46,0.00,,OVC060,0.00,VWS V14.01,2013-03-11 20:40:00,
2013-03-11 16:41:00,47.3,27.6,29.47,WNW,292,0.0,0.0,46,0.00,,OVC060,0.00,VWS V14.01,2013-03-11 20:41:00,
2013-03-11 16:42:00,47.3,27.6,29.47,WNW,292,1.6,1.6,46,0.00,,OVC060,0.00,VWS V14.01,2013-03-11 20:42:00,
2013-03-11 16:43:00,47.3,27.6,29.47,WNW,292,0.0,1.6,46,0.00,,OVC060,0.00,VWS V14.01,2013-03-11 20:43:00,
2013-03-11 16:44:00,47.3,27.6,29.47,West,270,0.0,0.0,46,0.00,,OVC060,0.00,VWS V14.01,2013-03-11 20:44:00,
2013-03-11 16:45:00,47.3,27.6,29.47,West,270,0.0,0.0,46,0.00,,OVC060,0.00,VWS V14.01,2013-03-11 20:45:00,
2013-03-11 16:46:00,47.3,27.6,29.47,SE,135,1.3,2.0,46,0.00,,OVC060,0.00,VWS V14.01,2013-03-11 20:46:00,
2013-03-11 16:47:00,47.3,27.6,29.47,West,270,0.0,0.0,46,0.00,,OVC060,0.00,VWS V14.01,2013-03-11 20:47:00,
2013-03-11 16:48:00,47.3,27.6,29.47,West,270,2.9,2.9,46,0.00,,OVC060,0.00,VWS V14.01,2013-03-11 20:48:00,
2013-03-11 16:49:00,47.7,27.4,29.47,West,270,1.6,2.9,45,0.00,,OVC060,0.00,VWS V14.01,2013-03-11 20:49:00,
2013-03-11 16:50:00,47.7,27.9,29.47,WNW,292,0.0,1.6,46,0.00,,OVC060,0.00,VWS V14.01,2013-03-11 20:50:00,
2013-03-11 16:51:00,47.5,27.2,29.47,West,270,2.2,2.2,45,0.00,,OVC060,0.00,VWS V14.01,2013-03-11 20:51:00,
2013-03-11 16:52:00,47.5,27.2,29.50,West,270,0.0,0.9,45,0.00,,OVC060,0.00,VWS V14.01,2013-03-11 20:52:00,
2013-03-11 16:53:00,47.5,27.2,29.50,West,270,0.0,0.9,45,0.00,,OVC060,0.00,VWS V14.01,2013-03-11 20:53:00,
2013-03-11 16:54:00,47.3,27.6,29.50,NNW,338,0.0,0.0,46,0.00,,OVC060,0.00,VWS V14.01,2013-03-11 20:54:00,
2013-03-11 16:55:00,47.3,27.6,29.50,WSW,248,2.0,2.0,46,0.00,,OVC060,0.00,VWS V14.01,2013-03-11 20:55:00,
2013-03-11 16:56:00,47.3,27.6,29.50,NW,315,1.3,2.0,46,0.00,,OVC060,0.00,VWS V14.01,2013-03-11 20:56:00,
2013-03-11 16:57:00,47.3,27.6,29.50,WSW,248,1.1,1.3,46,0.00,,OVC060,0.00,VWS V14.01,2013-03-11 20:57:00,
2013-03-11 16:58:00,47.3,27.6,29.50,West,270,0.0,1.3,46,0.00,,OVC060,0.00,VWS V14.01,2013-03-11 20:58:00,
2013-03-11 16:59:00,47.3,27.6,29.50,West,270,0.9,0.9,46,0.00,,OVC060,0.00,VWS V14.01,2013-03-11 20:59:00,
2013-03-11 17:00:00,47.3,27.6,29.50,West,270,0.0,0.9,46,0.00,,OVC060,0.00,VWS V14.01,2013-03-11 21:00:00,
2013-03-11 17:01:00,47.1,27.4,29.50,West,270,0.0,0.0,46,0.00,,OVC060,0.00,VWS V14.01,2013-03-11 21:01:00,
2013-03-11 17:02:00,47.1,27.4,29.50,WNW,292,2.2,2.2,46,0.00,,OVC060,0.00,VWS V14.01,2013-03-11 21:02:00,
2013-03-11 17:03:00,47.1,27.4,29.50,WNW,292,2.2,2.2,46,0.00,,OVC060,0.00,VWS V14.01,2013-03-11 21:03:00,
2013-03-11 17:04:00,47.1,27.4,29.50,SW,225,0.0,2.2,46,0.00,,OVC060,0.00,VWS V14.01,2013-03-11 21:04:00,
2013-03-11 17:05:00,46.9,27.2,29.50,WSW,248,0.0,0.0,46,0.00,,OVC060,0.00,VWS V14.01,2013-03-11 21:05:00,
2013-03-11 17:06:00,46.9,27.2,29.50,SE,135,0.0,0.0,46,0.00,,OVC060,0.00,VWS V14.01,2013-03-11 21:06:00,
2013-03-11 17:07:00,46.9,27.3,29.50,WNW,292,0.0,0.0,46,0.00,,OVC060,0.00,VWS V14.01,2013-03-11 21:07:00,
2013-03-11 17:08:00,46.9,27.2,29.50,West,270,0.0,0.0,46,0.00,,OVC060,0.00,VWS V14.01,2013-03-11 21:08:00,
2013-03-11 17:09:00,46.9,27.2,29.50,West,270,0.0,0.0,46,0.00,,OVC060,0.00,VWS V14.01,2013-03-11 21:09:00,
2013-03-11 17:10:00,46.9,27.2,29.50,SSW,202,0.0,0.0,46,0.00,,OVC060,0.00,VWS V14.01,2013-03-11 21:10:00,
2013-03-11 17:11:00,46.9,27.2,29.50,ENE,68,2.0,2.0,46,0.00,,OVC060,0.00,VWS V14.01,2013-03-11 21:11:00,
2013-03-11 17:12:00,46.9,27.3,29.50,NNE,22,1.1,1.1,46,0.00,,OVC060,0.00,VWS V14.01,2013-03-11 21:12:00,
2013-03-11 17:13:00,46.9,27.2,29.50,ESE,112,0.9,1.1,46,0.00,,OVC060,0.00,VWS V14.01,2013-03-11 21:13:00,
2013-03-11 17:14:00,46.9,27.2,29.50,ESE,112,0.9,0.9,46,0.00,,OVC060,0.00,VWS V14.01,2013-03-11 21:14:00,
2013-03-11 17:15:00,46.9,27.2,29.50,WNW,292,1.3,1.3,46,0.00,,OVC060,0.00,VWS V14.01,2013-03-11 21:15:00,
2013-03-11 17:16:00,46.9,27.2,29.50,WSW,248,1.1,1.3,46,0.00,,OVC060,0.00,VWS V14.01,2013-03-11 21:16:00,
2013-03-11 17:17:00,46.9,27.3,29.50,West,270,0.0,0.0,46,0.00,,OVC060,0.00,VWS V14.01,2013-03-11 21:17:00,
2013-03-11 17:18:00,46.9,27.2,29.50,West,270,0.0,0.0,46,0.00,,OVC060,0.00,VWS V14.01,2013-03-11 21:18:00,
2013-03-11 17:19:00,46.9,27.2,29.50,West,270,0.0,0.0,46,0.00,,OVC060,0.00,VWS V14.01,2013-03-11 21:19:00,
2013-03-11 17:20:00,46.9,27.2,29.50,West,270,0.0,0.0,46,0.00,,OVC060,0.00,VWS V14.01,2013-03-11 21:20:00,
2013-03-11 17:21:00,46.9,27.2,29.50,West,270,0.0,0.0,46,0.00,,OVC060,0.00,VWS V14.01,2013-03-11 21:21:00,
2013-03-11 17:22:00,46.6,26.9,29.50,West,270,1.1,1.1,46,0.00,,OVC060,0.00,VWS V14.01,2013-03-11 21:22:00,
2013-03-11 17:23:00,46.6,26.9,29.50,West,270,1.1,1.1,46,0.00,,OVC060,0.00,VWS V14.01,2013-03-11 21:23:00,
2013-03-11 17:24:00,46.6,26.9,29.50,West,270,2.2,2.2,46,0.00,,OVC060,0.00,VWS V14.01,2013-03-11 21:24:00,
2013-03-11 17:25:00,46.6,26.9,29.50,West,270,0.0,2.2,46,0.00,,OVC060,0.00,VWS V14.01,2013-03-11 21:25:00,
2013-03-11 17:26:00,46.4,26.8,29.50,West,270,0.0,0.0,46,0.00,,OVC060,0.00,VWS V14.01,2013-03-11 21:26:00,
2013-03-11 17:27:00,46.2,27.1,29.50,West,270,0.0,0.0,47,0.00,,OVC060,0.00,VWS V14.01,2013-03-11 21:27:00,
2013-03-11 17:28:00,46.2,27.1,29.50,West,270,0.0,0.0,47,0.00,,OVC060,0.00,VWS V14.01,2013-03-11 21:28:00,
2013-03-11 17:29:00,46.2,27.1,29.50,West,270,0.0,0.0,47,0.00,,OVC060,0.00,VWS V14.01,2013-03-11 21:29:00,
2013-03-11 17:30:00,46.2,27.1,29.50,West,270,0.0,0.0,47,0.00,,OVC060,0.00,VWS V14.01,2013-03-11 21:30:00,
2013-03-11 17:31:00,46.0,27.0,29.50,WNW,292,0.0,0.0,47,0.00,,OVC060,0.00,VWS V14.01,2013-03-11 21:31:00,
2013-03-11 17:32:00,46.0,27.0,29.50,SE,135,1.6,1.6,47,0.00,,OVC060,0.00,VWS V14.01,2013-03-11 21:32:00,
2013-03-11 17:33:00,46.0,27.0,29.50,ENE,68,1.1,1.6,47,0.00,,OVC060,0.00,VWS V14.01,2013-03-11 21:33:00,
2013-03-11 17:34:00,46.0,27.0,29.50,NNE,22,0.9,1.1,47,0.00,,OVC060,0.00,VWS V14.01,2013-03-11 21:34:00,
2013-03-11 17:35:00,46.2,27.1,29.50,WSW,248,1.6,1.6,47,0.00,,OVC060,0.00,VWS V14.01,2013-03-11 21:35:00,
2013-03-11 17:36:00,46.2,27.1,29.50,WSW,248,1.6,1.6,47,0.00,,OVC060,0.00,VWS V14.01,2013-03-11 21:36:00,
2013-03-11 17:37:00,46.2,27.1,29.50,WNW,292,0.0,0.0,47,0.00,,OVC060,0.00,VWS V14.01,2013-03-11 21:37:00,
2013-03-11 17:38:00,46.2,27.1,29.50,WNW,292,0.0,0.0,47,0.00,,OVC060,0.00,VWS V14.01,2013-03-11 21:38:00,
2013-03-11 17:39:00,46.2,27.1,29.50,WNW,292,0.0,0.0,47,0.00,,OVC060,0.00,VWS V14.01,2013-03-11 21:39:00,
2013-03-11 17:40:00,45.9,26.8,29.50,WNW,292,0.0,0.0,47,0.00,,OVC060,0.00,VWS V14.01,2013-03-11 21:40:00,
2013-03-11 17:41:00,45.9,26.8,29.50,WNW,292,0.0,0.0,47,0.00,,OVC060,0.00,VWS V14.01,2013-03-11 21:41:00,
2013-03-11 17:42:00,45.9,26.8,29.50,NNW,338,0.0,0.0,47,0.00,,OVC060,0.00,VWS V14.01,2013-03-11 21:42:00,
2013-03-11 17:43:00,45.7,26.6,29.50,NNW,338,0.0,0.0,47,0.00,,OVC060,0.00,VWS V14.01,2013-03-11 21:43:00,
2013-03-11 17:44:00,45.7,26.6,29.50,WNW,292,0.0,0.0,47,0.00,,OVC060,0.00,VWS V14.01,2013-03-11 21:44:00,
2013-03-11 17:45:00,45.5,26.5,29.50,WNW,292,0.0,0.0,47,0.00,,OVC060,0.00,VWS V14.01,2013-03-11 21:45:00,
2013-03-11 17:46:00,45.5,26.5,29.50,WNW,292,0.0,0.0,47,0.00,,OVC060,0.00,VWS V14.01,2013-03-11 21:46:00,
2013-03-11 17:47:00,45.5,26.5,29.50,SSE,158,0.0,0.0,47,0.00,,OVC060,0.00,VWS V14.01,2013-03-11 21:47:00,
2013-03-11 17:48:00,45.5,26.5,29.50,SSE,158,0.0,0.0,47,0.00,,OVC060,0.00,VWS V14.01,2013-03-11 21:48:00,
2013-03-11 17:49:00,45.3,26.3,29.50,SSE,158,0.0,0.0,47,0.00,,OVC060,0.00,VWS V14.01,2013-03-11 21:49:00,
2013-03-11 17:50:00,45.3,26.3,29.50,SSE,158,0.0,0.0,47,0.00,,OVC060,0.00,VWS V14.01,2013-03-11 21:50:00,
2013-03-11 17:51:00,45.1,26.1,29.50,SSE,158,0.0,0.0,47,0.00,,OVC060,0.00,VWS V14.01,2013-03-11 21:51:00,
2013-03-11 17:52:00,45.1,26.1,29.50,SSE,158,0.0,0.0,47,0.00,,OVC060,0.00,VWS V14.01,2013-03-11 21:52:00,
2013-03-11 17:53:00,45.1,26.1,29.50,SSE,158,0.0,0.0,47,0.00,,OVC060,0.00,VWS V14.01,2013-03-11 21:53:00,
2013-03-11 17:54:00,45.1,26.1,29.50,SSE,158,0.0,0.0,47,0.00,,OVC060,0.00,VWS V14.01,2013-03-11 21:54:00,
2013-03-11 17:55:00,45.1,26.1,29.50,SSE,158,0.0,0.0,47,0.00,,OVC060,0.00,VWS V14.01,2013-03-11 21:55:00,
2013-03-11 17:56:00,45.0,26.5,29.50,SSE,158,0.0,0.0,48,0.00,,OVC060,0.00,VWS V14.01,2013-03-11 21:56:00,
2013-03-11 17:57:00,45.0,26.5,29.50,SSE,158,0.0,0.0,48,0.00,,OVC060,0.00,VWS V14.01,2013-03-11 21:57:00,
2013-03-11 17:58:00,45.0,26.5,29.50,SSE,158,0.0,0.0,48,0.00,,OVC060,0.00,VWS V14.01,2013-03-11 21:58:00,
2013-03-11 17:59:00,45.0,26.5,29.50,SSE,158,0.0,0.0,48,0.00,,OVC060,0.00,VWS V14.01,2013-03-11 21:59:00,
2013-03-11 18:00:00,45.0,26.5,29.50,SSE,158,0.0,0.0,48,0.00,,OVC060,0.00,VWS V14.01,2013-03-11 22:00:00,
2013-03-11 18:01:00,44.8,26.3,29.50,SSE,158,0.0,0.0,48,0.00,,OVC060,0.00,VWS V14.01,2013-03-11 22:01:00,
2013-03-11 18:02:00,44.8,26.3,29.50,SSE,158,0.0,0.0,48,0.00,,OVC060,0.00,VWS V14.01,2013-03-11 22:02:00,
2013-03-11 18:03:00,44.8,26.3,29.50,SSE,158,0.0,0.0,48,0.00,,OVC060,0.00,VWS V14.01,2013-03-11 22:03:00,
2013-03-11 18:04:00,44.8,26.3,29.50,SSE,158,0.0,0.0,48,0.00,,OVC060,0.00,VWS V14.01,2013-03-11 22:04:00,
2013-03-11 18:05:00,44.8,26.3,29.50,SSE,158,0.0,0.0,48,0.00,,OVC060,0.00,VWS V14.01,2013-03-11 22:05:00,
2013-03-11 18:06:00,44.6,26.1,29.50,SSE,158,0.0,0.0,48,0.00,,OVC060,0.00,VWS V14.01,2013-03-11 22:06:00,
2013-03-11 18:07:00,44.6,26.1,29.50,SSE,158,0.0,0.0,48,0.00,,OVC060,0.00,VWS V14.01,2013-03-11 22:07:00,
2013-03-11 18:08:00,44.6,26.1,29.50,SSE,158,0.0,0.0,48,0.00,,OVC060,0.00,VWS V14.01,2013-03-11 22:08:00,
2013-03-11 18:09:00,44.6,26.1,29.50,South,180,0.0,1.3,48,0.00,,OVC060,0.00,VWS V14.01,2013-03-11 22:09:00,
2013-03-11 18:10:00,44.6,26.1,29.50,South,180,0.0,0.0,48,0.00,,OVC060,0.00,VWS V14.01,2013-03-11 22:10:00,
2013-03-11 18:11:00,44.6,26.1,29.50,South,180,0.0,0.0,48,0.00,,OVC060,0.00,VWS V14.01,2013-03-11 22:11:00,
2013-03-11 18:12:00,44.6,26.1,29.50,South,180,0.0,0.0,48,0.00,,OVC060,0.00,VWS V14.01,2013-03-11 22:12:00,
2013-03-11 18:13:00,44.2,26.3,29.50,South,180,0.0,0.0,49,0.00,,OVC060,0.00,VWS V14.01,2013-03-11 22:13:00,
2013-03-11 18:14:00,44.2,26.3,29.50,South,180,0.0,0.0,49,0.00,,OVC060,0.00,VWS V14.01,2013-03-11 22:14:00,
2013-03-11 18:15:00,44.1,26.1,29.50,South,180,0.0,0.0,49,0.00,,OVC060,0.00,VWS V14.01,2013-03-11 22:15:00,
2013-03-11 18:16:00,44.1,26.1,29.50,South,180,0.0,0.0,49,0.00,,OVC060,0.00,VWS V14.01,2013-03-11 22:16:00,
2013-03-11 18:17:00,43.9,26.0,29.50,SSE,158,0.0,0.0,49,0.00,,OVC060,0.00,VWS V14.01,2013-03-11 22:17:00,
2013-03-11 18:18:00,43.9,26.0,29.50,SSE,158,0.0,0.0,49,0.00,,OVC060,0.00,VWS V14.01,2013-03-11 22:18:00,
2013-03-11 18:19:00,43.9,26.0,29.50,SSW,202,0.0,0.0,49,0.00,,OVC060,0.00,VWS V14.01,2013-03-11 22:19:00,
2013-03-11 18:20:00,43.9,26.0,29.50,SSW,202,0.0,0.0,49,0.00,,OVC060,0.00,VWS V14.01,2013-03-11 22:20:00,
2013-03-11 18:21:00,43.7,25.8,29.50,SSW,202,0.0,0.0,49,0.00,,OVC060,0.00,VWS V14.01,2013-03-11 22:21:00,
2013-03-11 18:22:00,43.5,25.6,29.50,SSW,202,0.0,0.0,49,0.00,,OVC060,0.00,VWS V14.01,2013-03-11 22:22:00,
2013-03-11 18:23:00,43.5,25.6,29.50,SSW,202,0.0,0.0,49,0.00,,OVC060,0.00,VWS V14.01,2013-03-11 22:23:00,
2013-03-11 18:24:00,43.3,25.5,29.50,SSW,202,0.0,0.0,49,0.00,,OVC060,0.00,VWS V14.01,2013-03-11 22:24:00,
2013-03-11 18:25:00,43.3,25.5,29.50,West,270,0.0,0.0,49,0.00,,OVC060,0.00,VWS V14.01,2013-03-11 22:25:00,
2013-03-11 18:26:00,43.2,25.3,29.50,West,270,0.0,0.0,49,0.00,,OVC060,0.00,VWS V14.01,2013-03-11 22:26:00,
2013-03-11 18:27:00,43.0,25.1,29.50,West,270,0.0,0.0,49,0.00,,OVC060,0.00,VWS V14.01,2013-03-11 22:27:00,
2013-03-11 18:28:00,43.0,25.1,29.50,SW,225,0.0,0.0,49,0.00,,OVC060,0.00,VWS V14.01,2013-03-11 22:28:00,
2013-03-11 18:29:00,43.0,25.1,29.50,SSW,202,0.0,0.0,49,0.00,,OVC060,0.00,VWS V14.01,2013-03-11 22:29:00,
2013-03-11 18:30:00,43.0,25.1,29.50,SSW,202,0.0,0.0,49,0.00,,OVC060,0.00,VWS V14.01,2013-03-11 22:30:00,
2013-03-11 18:31:00,42.8,25.0,29.50,SSW,202,0.0,0.0,49,0.00,,OVC060,0.00,VWS V14.01,2013-03-11 22:31:00,
2013-03-11 18:32:00,42.8,25.0,29.50,South,180,0.0,0.0,49,0.00,,OVC060,0.00,VWS V14.01,2013-03-11 22:32:00,
2013-03-11 18:33:00,42.8,25.0,29.50,South,180,0.0,0.0,49,0.00,,OVC060,0.00,VWS V14.01,2013-03-11 22:33:00,
2013-03-11 18:34:00,42.8,25.0,29.50,South,180,0.0,0.0,49,0.00,,OVC060,0.00,VWS V14.01,2013-03-11 22:34:00,
2013-03-11 18:35:00,42.8,25.0,29.50,South,180,0.0,0.0,49,0.00,,OVC060,0.00,VWS V14.01,2013-03-11 22:35:00,
2013-03-11 18:36:00,42.6,25.3,29.50,South,180,0.0,0.0,50,0.00,,OVC060,0.00,VWS V14.01,2013-03-11 22:36:00,
2013-03-11 18:37:00,42.4,25.1,29.50,South,180,0.0,0.0,50,0.00,,OVC060,0.00,VWS V14.01,2013-03-11 22:37:00,
2013-03-11 18:38:00,42.4,25.1,29.50,South,180,0.0,0.0,50,0.00,,OVC060,0.00,VWS V14.01,2013-03-11 22:38:00,
2013-03-11 18:39:00,42.4,25.1,29.50,South,180,0.0,0.0,50,0.00,,OVC060,0.00,VWS V14.01,2013-03-11 22:39:00,
2013-03-11 18:40:00,42.4,25.1,29.50,South,180,0.0,0.0,50,0.00,,OVC060,0.00,VWS V14.01,2013-03-11 22:40:00,
2013-03-11 18:41:00,42.4,25.1,29.50,South,180,0.0,0.0,50,0.00,,OVC060,0.00,VWS V14.01,2013-03-11 22:41:00,
2013-03-11 18:42:00,42.3,25.0,29.50,South,180,0.0,0.0,50,0.00,,OVC060,0.00,VWS V14.01,2013-03-11 22:42:00,
2013-03-11 18:43:00,42.3,25.0,29.50,South,180,0.0,0.0,50,0.00,,OVC060,0.00,VWS V14.01,2013-03-11 22:43:00,
2013-03-11 18:44:00,42.3,25.0,29.50,SSE,158,0.0,0.0,50,0.00,,OVC060,0.00,VWS V14.01,2013-03-11 22:44:00,
2013-03-11 18:45:00,42.3,25.0,29.50,SSE,158,0.0,0.0,50,0.00,,OVC060,0.00,VWS V14.01,2013-03-11 22:45:00,
2013-03-11 18:46:00,42.3,25.0,29.50,WSW,248,0.0,0.0,50,0.00,,OVC060,0.00,VWS V14.01,2013-03-11 22:46:00,
2013-03-11 18:47:00,41.7,24.9,29.50,WSW,248,0.0,0.0,51,0.00,,OVC060,0.00,VWS V14.01,2013-03-11 22:47:00,
2013-03-11 18:48:00,41.5,24.8,29.50,WSW,248,0.0,0.0,51,0.00,,OVC060,0.00,VWS V14.01,2013-03-11 22:48:00,
2013-03-11 18:49:00,41.5,24.8,29.50,WSW,248,0.0,0.0,51,0.00,,OVC060,0.00,VWS V14.01,2013-03-11 22:49:00,
2013-03-11 18:50:00,41.5,24.8,29.50,SW,225,0.0,0.0,51,0.00,,OVC060,0.00,VWS V14.01,2013-03-11 22:50:00,
2013-03-11 18:51:00,41.5,24.8,29.50,SW,225,0.0,0.0,51,0.00,,OVC060,0.00,VWS V14.01,2013-03-11 22:51:00,
2013-03-11 18:52:00,41.4,24.6,29.50,WSW,248,0.0,0.0,51,0.00,,OVC060,0.00,VWS V14.01,2013-03-11 22:52:00,
2013-03-11 18:53:00,41.4,24.6,29.50,WSW,248,0.0,0.0,51,0.00,,OVC060,0.00,VWS V14.01,2013-03-11 22:53:00,
2013-03-11 18:54:00,41.2,24.4,29.50,WSW,248,0.0,0.0,51,0.00,,OVC060,0.00,VWS V14.01,2013-03-11 22:54:00,
2013-03-11 18:55:00,41.2,24.4,29.50,WSW,248,0.0,0.0,51,0.00,,OVC060,0.00,VWS V14.01,2013-03-11 22:55:00,
2013-03-11 18:56:00,41.2,24.4,29.50,WSW,248,0.0,0.0,51,0.00,,OVC060,0.00,VWS V14.01,2013-03-11 22:56:00,
2013-03-11 18:57:00,41.2,24.9,29.50,WSW,248,0.0,0.0,52,0.00,,OVC060,0.00,VWS V14.01,2013-03-11 22:57:00,
2013-03-11 18:58:00,41.2,24.9,29.50,WSW,248,0.0,0.0,52,0.00,,OVC060,0.00,VWS V14.01,2013-03-11 22:58:00,
2013-03-11 18:59:00,41.0,24.7,29.50,West,270,0.0,0.0,52,0.00,,OVC060,0.00,VWS V14.01,2013-03-11 22:59:00,
2013-03-11 19:00:00,41.0,24.7,29.50,West,270,0.0,0.0,52,0.00,,OVC060,0.00,VWS V14.01,2013-03-11 23:00:00,
2013-03-11 19:01:00,41.0,24.7,29.50,West,270,0.0,0.0,52,0.00,,OVC060,0.00,VWS V14.01,2013-03-11 23:01:00,
2013-03-11 19:02:00,41.0,24.7,29.50,West,270,0.0,0.0,52,0.00,,OVC060,0.00,VWS V14.01,2013-03-11 23:02:00,
2013-03-11 19:03:00,41.0,25.2,29.50,West,270,0.0,0.0,53,0.00,,OVC060,0.00,VWS V14.01,2013-03-11 23:03:00,
2013-03-11 19:04:00,41.0,25.2,29.50,West,270,0.0,0.0,53,0.00,,OVC060,0.00,VWS V14.01,2013-03-11 23:04:00,
2013-03-11 19:05:00,40.8,25.0,29.50,West,270,0.0,0.0,53,0.00,,OVC060,0.00,VWS V14.01,2013-03-11 23:05:00,
2013-03-11 19:06:00,40.8,25.0,29.50,West,270,0.0,0.0,53,0.00,,OVC060,0.00,VWS V14.01,2013-03-11 23:06:00,
2013-03-11 19:07:00,40.8,25.0,29.50,SSE,158,0.0,0.0,53,0.00,,OVC060,0.00,VWS V14.01,2013-03-11 23:07:00,
2013-03-11 19:08:00,40.8,25.0,29.47,SSE,158,0.0,0.0,53,0.00,,OVC060,0.00,VWS V14.01,2013-03-11 23:08:00,
2013-03-11 19:09:00,40.8,25.0,29.47,SSE,158,0.0,0.0,53,0.00,,OVC060,0.00,VWS V14.01,2013-03-11 23:09:00,
2013-03-11 19:10:00,40.6,24.9,29.47,SSE,158,0.0,0.0,53,0.00,,OVC060,0.00,VWS V14.01,2013-03-11 23:10:00,
2013-03-11 19:11:00,40.6,24.9,29.47,SSE,158,0.0,0.0,53,0.00,,OVC060,0.00,VWS V14.01,2013-03-11 23:11:00,
2013-03-11 19:13:00,40.6,24.9,29.47,SSE,158,1.1,1.1,53,0.00,,OVC060,0.00,VWS V14.01,2013-03-11 23:13:00,
2013-03-11 19:14:00,40.5,24.2,29.47,SSE,158,0.0,1.1,52,0.00,,OVC060,0.00,VWS V14.01,2013-03-11 23:14:00,
2013-03-11 19:15:00,40.5,24.2,29.47,SSE,158,0.0,0.0,52,0.00,,OVC060,0.00,VWS V14.01,2013-03-11 23:15:00,
2013-03-11 19:16:00,40.5,24.2,29.47,SSE,158,0.0,0.0,52,0.00,,OVC060,0.00,VWS V14.01,2013-03-11 23:16:00,
2013-03-11 19:17:00,40.5,24.2,29.47,SSE,158,0.0,0.0,52,0.00,,OVC060,0.00,VWS V14.01,2013-03-11 23:17:00,
2013-03-11 19:18:00,40.5,24.2,29.47,SSE,158,0.0,0.0,52,0.00,,OVC060,0.00,VWS V14.01,2013-03-11 23:18:00,
2013-03-11 19:19:00,40.3,24.5,29.47,SSE,158,0.0,0.0,53,0.00,,OVC060,0.00,VWS V14.01,2013-03-11 23:19:00,
2013-03-11 19:20:00,40.3,24.5,29.47,SSE,158,0.0,0.0,53,0.00,,OVC060,0.00,VWS V14.01,2013-03-11 23:20:00,
2013-03-11 19:21:00,40.3,24.5,29.47,SSE,158,0.0,0.0,53,0.00,,OVC060,0.00,VWS V14.01,2013-03-11 23:21:00,
2013-03-11 19:22:00,40.3,24.5,29.47,SSE,158,0.0,0.0,53,0.00,,OVC060,0.00,VWS V14.01,2013-03-11 23:22:00,
2013-03-11 19:23:00,40.3,24.5,29.47,SSE,158,0.0,0.0,53,0.00,,OVC060,0.00,VWS V14.01,2013-03-11 23:23:00,
2013-03-11 19:24:00,40.3,24.5,29.47,SSE,158,0.0,0.0,53,0.00,,OVC060,0.00,VWS V14.01,2013-03-11 23:24:00,
2013-03-11 19:25:00,40.3,24.5,29.47,SSE,158,0.0,0.0,53,0.00,,OVC060,0.00,VWS V14.01,2013-03-11 23:25:00,
2013-03-11 19:26:00,39.9,24.2,29.47,SSE,158,0.0,0.0,53,0.00,,OVC060,0.00,VWS V14.01,2013-03-11 23:26:00,
2013-03-11 19:27:00,39.9,24.2,29.47,SSE,158,0.0,0.0,53,0.00,,OVC060,0.00,VWS V14.01,2013-03-11 23:27:00,
2013-03-11 19:28:00,39.9,24.2,29.47,SSE,158,0.0,0.0,53,0.00,,OVC060,0.00,VWS V14.01,2013-03-11 23:28:00,
2013-03-11 19:29:00,39.7,24.0,29.47,SSE,158,0.0,0.0,53,0.00,,OVC060,0.00,VWS V14.01,2013-03-11 23:29:00,
2013-03-11 19:30:00,39.7,24.0,29.47,SSE,158,0.0,0.0,53,0.00,,OVC060,0.00,VWS V14.01,2013-03-11 23:30:00,
2013-03-11 19:31:00,39.6,23.9,29.47,SSW,202,0.0,0.0,53,0.00,,OVC060,0.00,VWS V14.01,2013-03-11 23:31:00,
2013-03-11 19:32:00,39.6,23.9,29.47,SSW,202,0.0,0.0,53,0.00,,OVC060,0.00,VWS V14.01,2013-03-11 23:32:00,
2013-03-11 19:33:00,39.4,24.1,29.47,SSW,202,0.9,0.9,54,0.00,,OVC060,0.00,VWS V14.01,2013-03-11 23:33:00,
2013-03-11 19:34:00,39.4,24.1,29.47,SSW,202,0.0,0.0,54,0.00,,OVC060,0.00,VWS V14.01,2013-03-11 23:34:00,
2013-03-11 19:35:00,39.6,24.3,29.47,SSW,202,0.0,0.0,54,0.00,,OVC060,0.00,VWS V14.01,2013-03-11 23:35:00,
2013-03-11 19:36:00,39.6,24.3,29.50,SSW,202,0.0,0.0,54,0.00,,OVC060,0.00,VWS V14.01,2013-03-11 23:36:00,
2013-03-11 19:37:00,39.6,24.3,29.50,SSW,202,0.0,0.0,54,0.00,,OVC060,0.00,VWS V14.01,2013-03-11 23:37:00,
2013-03-11 19:38:00,39.6,24.3,29.50,SSW,202,0.0,0.0,54,0.00,,OVC060,0.00,VWS V14.01,2013-03-11 23:38:00,
2013-03-11 19:39:00,39.6,24.3,29.50,SSW,202,0.0,0.0,54,0.00,,OVC060,0.00,VWS V14.01,2013-03-11 23:39:00,
2013-03-11 19:40:00,39.4,24.1,29.50,SSW,202,0.0,0.0,54,0.00,,OVC060,0.00,VWS V14.01,2013-03-11 23:40:00,
2013-03-11 19:41:00,39.4,24.1,29.50,South,180,0.0,0.0,54,0.00,,OVC060,0.00,VWS V14.01,2013-03-11 23:41:00,
2013-03-11 19:42:00,39.4,24.1,29.50,South,180,0.0,0.0,54,0.00,,OVC060,0.00,VWS V14.01,2013-03-11 23:42:00,
2013-03-11 19:43:00,39.4,24.1,29.50,South,180,0.0,0.0,54,0.00,,OVC060,0.00,VWS V14.01,2013-03-11 23:43:00,
2013-03-11 19:44:00,39.4,24.1,29.50,South,180,0.0,0.0,54,0.00,,OVC060,0.00,VWS V14.01,2013-03-11 23:44:00,
2013-03-11 19:45:00,39.2,24.0,29.50,SSW,202,0.0,0.0,54,0.00,,OVC060,0.00,VWS V14.01,2013-03-11 23:45:00,
2013-03-11 19:46:00,39.2,24.0,29.50,SSW,202,0.0,0.0,54,0.00,,OVC060,0.00,VWS V14.01,2013-03-11 23:46:00,
2013-03-11 19:47:00,39.2,24.0,29.50,SSW,202,0.0,0.0,54,0.00,,OVC060,0.00,VWS V14.01,2013-03-11 23:47:00,
2013-03-11 19:48:00,39.2,24.0,29.50,SSW,202,0.0,0.0,54,0.00,,OVC060,0.00,VWS V14.01,2013-03-11 23:48:00,
2013-03-11 19:49:00,38.8,23.6,29.50,WSW,248,0.0,0.0,54,0.00,,OVC060,0.00,VWS V14.01,2013-03-11 23:49:00,
2013-03-11 19:50:00,38.8,23.6,29.50,WSW,248,0.0,0.0,54,0.00,,OVC060,0.00,VWS V14.01,2013-03-11 23:50:00,
2013-03-11 19:51:00,38.8,24.1,29.50,SSW,202,1.3,1.3,55,0.00,,OVC060,0.00,VWS V14.01,2013-03-11 23:51:00,
2013-03-11 19:52:00,38.8,24.1,29.50,South,180,0.0,1.3,55,0.00,,OVC060,0.00,VWS V14.01,2013-03-11 23:52:00,
2013-03-11 19:53:00,38.8,24.1,29.50,South,180,0.0,0.0,55,0.00,,OVC060,0.00,VWS V14.01,2013-03-11 23:53:00,
2013-03-11 19:54:00,38.7,23.9,29.50,SSE,158,1.6,1.6,55,0.00,,OVC060,0.00,VWS V14.01,2013-03-11 23:54:00,
2013-03-11 19:55:00,38.7,23.9,29.50,SSE,158,0.0,1.6,55,0.00,,OVC060,0.00,VWS V14.01,2013-03-11 23:55:00,
2013-03-11 19:56:00,38.7,23.9,29.50,SSE,158,0.0,0.0,55,0.00,,OVC060,0.00,VWS V14.01,2013-03-11 23:56:00,
2013-03-11 19:57:00,38.7,23.9,29.50,ESE,112,2.0,2.0,55,0.00,,OVC060,0.00,VWS V14.01,2013-03-11 23:57:00,
2013-03-11 19:58:00,38.7,23.9,29.50,ESE,112,0.9,2.0,55,0.00,,OVC060,0.00,VWS V14.01,2013-03-11 23:58:00,
2013-03-11 19:59:00,38.5,23.7,29.50,ESE,112,0.9,0.9,55,0.00,,OVC060,0.00,VWS V14.01,2013-03-11 23:59:00,
2013-03-11 20:00:00,38.5,23.7,29.50,SE,135,0.9,1.3,55,0.00,,OVC060,0.00,VWS V14.01,2013-03-12 00:00:00,
2013-03-11 20:01:00,38.5,23.7,29.50,ESE,112,0.0,0.9,55,0.00,,OVC060,0.00,VWS V14.01,2013-03-12 00:01:00,
2013-03-11 20:02:00,38.5,23.7,29.50,ESE,112,0.0,0.0,55,0.00,,OVC060,0.00,VWS V14.01,2013-03-12 00:02:00,
2013-03-11 20:03:00,38.5,23.7,29.50,ESE,112,0.0,0.0,55,0.00,,OVC060,0.00,VWS V14.01,2013-03-12 00:03:00,
2013-03-11 20:04:00,38.5,23.7,29.50,SSE,158,1.1,1.3,55,0.00,,OVC060,0.00,VWS V14.01,2013-03-12 00:04:00,
2013-03-11 20:05:00,38.5,23.7,29.50,SSE,158,0.0,1.1,55,0.00,,OVC060,0.00,VWS V14.01,2013-03-12 00:05:00,
2013-03-11 20:06:00,38.5,23.7,29.50,SSE,158,0.0,0.0,55,0.00,,OVC060,0.00,VWS V14.01,2013-03-12 00:06:00,
2013-03-11 20:07:00,38.5,23.7,29.50,East,90,0.0,1.6,55,0.00,,OVC060,0.00,VWS V14.01,2013-03-12 00:07:00,
2013-03-11 20:08:00,38.5,23.7,29.50,ENE,68,0.0,0.0,55,0.00,,OVC060,0.00,VWS V14.01,2013-03-12 00:08:00,
2013-03-11 20:09:00,38.5,23.7,29.50,ENE,68,1.6,1.6,55,0.00,,OVC060,0.00,VWS V14.01,2013-03-12 00:09:00,
2013-03-11 20:10:00,38.5,23.7,29.50,ENE,68,1.6,1.6,55,0.00,,OVC060,0.00,VWS V14.01,2013-03-12 00:10:00,
2013-03-11 20:11:00,38.5,23.7,29.50,ENE,68,1.6,1.6,55,0.00,,OVC060,0.00,VWS V14.01,2013-03-12 00:11:00,
2013-03-11 20:12:00,38.5,23.7,29.50,SSE,158,0.9,1.6,55,0.00,,OVC060,0.00,VWS V14.01,2013-03-12 00:12:00,
2013-03-11 20:13:00,38.5,23.7,29.50,ESE,112,1.1,1.1,55,0.00,,OVC060,0.00,VWS V14.01,2013-03-12 00:13:00,
2013-03-11 20:14:00,38.5,24.2,29.50,ESE,112,2.5,2.5,56,0.00,,OVC060,0.00,VWS V14.01,2013-03-12 00:14:00,
2013-03-11 20:15:00,38.5,23.7,29.50,East,90,2.0,2.5,55,0.00,,OVC060,0.00,VWS V14.01,2013-03-12 00:15:00,
2013-03-11 20:16:00,38.5,23.7,29.50,East,90,1.3,2.0,55,0.00,,OVC060,0.00,VWS V14.01,2013-03-12 00:16:00,
2013-03-11 20:17:00,38.3,24.0,29.50,ESE,112,1.3,1.3,56,0.00,,OVC060,0.00,VWS V14.01,2013-03-12 00:17:00,
2013-03-11 20:18:00,38.3,24.0,29.50,ESE,112,1.3,1.3,56,0.00,,OVC060,0.00,VWS V14.01,2013-03-12 00:18:00,
2013-03-11 20:19:00,38.3,24.0,29.50,SE,135,0.0,0.0,56,0.00,,OVC060,0.00,VWS V14.01,2013-03-12 00:19:00,
2013-03-11 20:20:00,38.3,24.0,29.50,East,90,0.0,0.0,56,0.00,,OVC060,0.00,VWS V14.01,2013-03-12 00:20:00,
2013-03-11 20:21:00,38.3,24.0,29.50,East,90,1.6,1.6,56,0.00,,OVC060,0.00,VWS V14.01,2013-03-12 00:21:00,
2013-03-11 20:22:00,38.5,24.2,29.50,SE,135,0.0,1.6,56,0.00,,OVC060,0.00,VWS V14.01,2013-03-12 00:22:00,
2013-03-11 20:23:00,38.5,24.2,29.50,ESE,112,1.6,1.6,56,0.00,,OVC060,0.00,VWS V14.01,2013-03-12 00:23:00,
2013-03-11 20:24:00,38.5,24.2,29.50,ESE,112,1.6,1.6,56,0.00,,OVC060,0.00,VWS V14.01,2013-03-12 00:24:00,
2013-03-11 20:25:00,38.5,24.2,29.50,ESE,112,1.6,1.6,56,0.00,,OVC060,0.00,VWS V14.01,2013-03-12 00:25:00,
2013-03-11 20:26:00,38.5,24.2,29.50,SSW,202,1.1,1.6,56,0.00,,OVC060,0.00,VWS V14.01,2013-03-12 00:26:00,
2013-03-11 20:27:00,38.5,24.2,29.50,SE,135,0.0,1.1,56,0.00,,OVC060,0.00,VWS V14.01,2013-03-12 00:27:00,
2013-03-11 20:28:00,38.5,24.2,29.50,SE,135,0.0,0.0,56,0.00,,OVC060,0.00,VWS V14.01,2013-03-12 00:28:00,
2013-03-11 20:29:00,38.5,24.2,29.50,SE,135,0.0,0.0,56,0.00,,OVC060,0.00,VWS V14.01,2013-03-12 00:29:00,
2013-03-11 20:30:00,38.5,24.2,29.50,SE,135,0.0,0.0,56,0.00,,OVC060,0.00,VWS V14.01,2013-03-12 00:30:00,
2013-03-11 20:31:00,38.1,24.2,29.50,SSE,158,0.0,0.0,57,0.00,,OVC060,0.00,VWS V14.01,2013-03-12 00:31:00,
2013-03-11 20:32:00,38.1,24.2,29.50,East,90,1.6,1.6,57,0.00,,OVC060,0.00,VWS V14.01,2013-03-12 00:32:00,
2013-03-11 20:33:00,38.1,24.2,29.50,East,90,1.6,1.6,57,0.00,,OVC060,0.00,VWS V14.01,2013-03-12 00:33:00,
2013-03-11 20:34:00,38.1,24.2,29.50,ESE,112,0.0,1.6,57,0.00,,OVC060,0.00,VWS V14.01,2013-03-12 00:34:00,
2013-03-11 20:35:00,38.1,24.2,29.50,ESE,112,0.0,0.0,57,0.00,,OVC060,0.00,VWS V14.01,2013-03-12 00:35:00,
2013-03-11 20:36:00,38.1,24.2,29.47,SSE,158,0.0,0.0,57,0.00,,OVC060,0.00,VWS V14.01,2013-03-12 00:36:00,
2013-03-11 20:37:00,38.1,24.2,29.47,ENE,68,1.3,1.3,57,0.00,,OVC060,0.00,VWS V14.01,2013-03-12 00:37:00,
2013-03-11 20:38:00,38.1,24.2,29.47,SSW,202,1.3,1.3,57,0.00,,OVC060,0.00,VWS V14.01,2013-03-12 00:38:00,
2013-03-11 20:39:00,38.1,24.2,29.47,South,180,1.1,1.3,57,0.00,,OVC060,0.00,VWS V14.01,2013-03-12 00:39:00,
2013-03-11 20:40:00,37.9,24.1,29.47,SSW,202,0.0,1.1,57,0.00,,OVC060,0.00,VWS V14.01,2013-03-12 00:40:00,
2013-03-11 20:41:00,37.9,24.1,29.47,South,180,0.0,0.0,57,0.00,,OVC060,0.00,VWS V14.01,2013-03-12 00:41:00,
2013-03-11 20:42:00,37.9,24.1,29.47,South,180,0.0,0.0,57,0.00,,OVC060,0.00,VWS V14.01,2013-03-12 00:42:00,
2013-03-11 20:43:00,37.9,24.1,29.47,South,180,0.0,0.0,57,0.00,,OVC060,0.00,VWS V14.01,2013-03-12 00:43:00,
2013-03-11 20:44:00,37.9,24.1,29.47,South,180,0.0,0.0,57,0.00,,OVC060,0.00,VWS V14.01,2013-03-12 00:44:00,
2013-03-11 20:45:00,38.1,24.2,29.47,SSE,158,1.3,1.3,57,0.00,,OVC060,0.00,VWS V14.01,2013-03-12 00:45:00,
2013-03-11 20:46:00,38.1,24.2,29.47,SSE,158,1.3,1.3,57,0.00,,OVC060,0.00,VWS V14.01,2013-03-12 00:46:00,
2013-03-11 20:47:00,37.9,24.1,29.47,SSE,158,0.9,1.3,57,0.00,,OVC060,0.00,VWS V14.01,2013-03-12 00:47:00,
2013-03-11 20:48:00,37.9,24.1,29.47,SSE,158,0.9,0.9,57,0.00,,OVC060,0.00,VWS V14.01,2013-03-12 00:48:00,
2013-03-11 20:49:00,37.9,24.1,29.47,ESE,112,1.3,1.3,57,0.00,,OVC060,0.00,VWS V14.01,2013-03-12 00:49:00,
2013-03-11 20:50:00,37.9,24.1,29.47,ESE,112,0.0,1.3,57,0.00,,OVC060,0.00,VWS V14.01,2013-03-12 00:50:00,
2013-03-11 20:51:00,38.1,24.2,29.47,ESE,112,0.0,0.0,57,0.00,,OVC060,0.00,VWS V14.01,2013-03-12 00:51:00,
2013-03-11 20:52:00,37.9,24.1,29.47,ENE,68,1.6,1.6,57,0.00,,OVC060,0.00,VWS V14.01,2013-03-12 00:52:00,
2013-03-11 20:53:00,37.9,24.1,29.47,SSE,158,0.0,1.6,57,0.00,,OVC060,0.00,VWS V14.01,2013-03-12 00:53:00,
2013-03-11 20:54:00,37.8,24.3,29.47,SSE,158,0.0,0.0,58,0.00,,OVC060,0.00,VWS V14.01,2013-03-12 00:54:00,
2013-03-11 20:55:00,37.8,24.3,29.47,SW,225,0.0,0.0,58,0.00,,OVC060,0.00,VWS V14.01,2013-03-12 00:55:00,
2013-03-11 20:56:00,37.8,24.3,29.47,SSE,158,0.0,0.0,58,0.00,,OVC060,0.00,VWS V14.01,2013-03-12 00:56:00,
2013-03-11 20:57:00,37.8,24.3,29.47,SSE,158,0.0,0.0,58,0.00,,OVC060,0.00,VWS V14.01,2013-03-12 00:57:00,
2013-03-11 20:58:00,37.9,24.5,29.47,SSE,158,0.0,0.0,58,0.00,,OVC060,0.00,VWS V14.01,2013-03-12 00:58:00,
2013-03-11 20:59:00,37.8,24.3,29.47,SSE,158,0.0,0.0,58,0.00,,OVC060,0.00,VWS V14.01,2013-03-12 00:59:00,
2013-03-11 21:00:00,37.8,24.3,29.47,SSW,202,0.0,0.0,58,0.00,,OVC060,0.00,VWS V14.01,2013-03-12 01:00:00,
2013-03-11 21:01:00,37.8,24.3,29.47,SSE,158,0.0,0.0,58,0.00,,OVC060,0.00,VWS V14.01,2013-03-12 01:01:00,
2013-03-11 21:02:00,37.8,24.3,29.47,SSE,158,0.0,0.0,58,0.00,,OVC060,0.00,VWS V14.01,2013-03-12 01:02:00,
2013-03-11 21:03:00,37.8,24.3,29.47,SSE,158,0.0,0.0,58,0.00,,OVC060,0.00,VWS V14.01,2013-03-12 01:03:00,
2013-03-11 21:04:00,37.8,24.3,29.47,SSE,158,0.0,0.0,58,0.00,,OVC060,0.00,VWS V14.01,2013-03-12 01:04:00,
2013-03-11 21:05:00,37.8,24.3,29.47,SSE,158,0.0,0.0,58,0.00,,OVC060,0.00,VWS V14.01,2013-03-12 01:05:00,
2013-03-11 21:06:00,37.8,24.3,29.47,SSE,158,0.0,0.0,58,0.00,,OVC060,0.00,VWS V14.01,2013-03-12 01:06:00,
2013-03-11 21:07:00,37.8,24.3,29.47,SE,135,0.0,0.0,58,0.00,,OVC060,0.00,VWS V14.01,2013-03-12 01:07:00,
2013-03-11 21:08:00,37.6,24.2,29.47,ESE,112,1.3,1.3,58,0.00,,OVC060,0.00,VWS V14.01,2013-03-12 01:08:00,
2013-03-11 21:09:00,37.6,24.2,29.47,SSE,158,0.9,1.3,58,0.00,,OVC060,0.00,VWS V14.01,2013-03-12 01:09:00,
2013-03-11 21:10:00,37.6,24.2,29.47,SE,135,1.3,1.3,58,0.00,,OVC060,0.00,VWS V14.01,2013-03-12 01:10:00,
2013-03-11 21:11:00,37.6,24.2,29.47,SSE,158,0.0,1.3,58,0.00,,OVC060,0.00,VWS V14.01,2013-03-12 01:11:00,
2013-03-11 21:12:00,37.6,24.2,29.47,SW,225,0.9,0.9,58,0.00,,OVC060,0.00,VWS V14.01,2013-03-12 01:12:00,
2013-03-11 21:13:00,37.6,24.2,29.47,WSW,248,0.0,0.9,58,0.00,,OVC060,0.00,VWS V14.01,2013-03-12 01:13:00,
2013-03-11 21:14:00,37.4,24.4,29.47,NNW,338,0.0,0.0,59,0.00,,OVC060,0.00,VWS V14.01,2013-03-12 01:14:00,
2013-03-11 21:15:00,37.4,24.4,29.47,WSW,248,0.0,0.9,59,0.00,,OVC060,0.00,VWS V14.01,2013-03-12 01:15:00,
2013-03-11 21:16:00,37.4,24.4,29.47,NW,315,2.5,2.5,59,0.00,,OVC060,0.00,VWS V14.01,2013-03-12 01:16:00,
2013-03-11 21:17:00,37.4,24.8,29.47,ENE,68,0.9,2.5,60,0.00,,OVC060,0.00,VWS V14.01,2013-03-12 01:17:00,
2013-03-11 21:18:00,37.4,24.8,29.47,ENE,68,0.9,0.9,60,0.00,,OVC060,0.00,VWS V14.01,2013-03-12 01:18:00,
2013-03-11 21:19:00,37.4,24.8,29.47,ENE,68,0.9,1.1,60,0.00,,OVC060,0.00,VWS V14.01,2013-03-12 01:19:00,
2013-03-11 21:20:00,37.4,24.8,29.47,ENE,68,0.9,0.9,60,0.00,,OVC060,0.00,VWS V14.01,2013-03-12 01:20:00,
2013-03-11 21:21:00,37.4,24.8,29.47,West,270,0.0,2.2,60,0.00,,OVC060,0.00,VWS V14.01,2013-03-12 01:21:00,
2013-03-11 21:22:00,37.4,24.8,29.47,NNW,338,0.0,0.0,60,0.00,,OVC060,0.00,VWS V14.01,2013-03-12 01:22:00,
2013-03-11 21:23:00,37.4,24.8,29.47,WNW,292,0.0,0.0,60,0.00,,OVC060,0.00,VWS V14.01,2013-03-12 01:23:00,
2013-03-11 21:25:00,37.4,24.8,29.47,WNW,292,0.0,0.0,60,0.00,,OVC060,0.00,VWS V14.01,2013-03-12 01:25:00,
2013-03-11 21:26:00,37.4,24.8,29.47,West,270,0.0,0.0,60,0.00,,OVC060,0.00,VWS V14.01,2013-03-12 01:26:00,
2013-03-11 21:27:00,37.4,24.8,29.47,West,270,1.1,1.1,60,0.00,,OVC060,0.00,VWS V14.01,2013-03-12 01:27:00,
2013-03-11 21:28:00,37.2,25.0,29.47,West,270,0.0,1.1,61,0.00,,OVC060,0.00,VWS V14.01,2013-03-12 01:28:00,
2013-03-11 21:30:00,37.2,25.0,29.47,SSE,158,1.3,1.3,61,0.00,,OVC060,0.00,VWS V14.01,2013-03-12 01:30:00,
2013-03-11 21:31:00,37.0,24.9,29.47,SSE,158,1.3,1.3,61,0.00,,OVC060,0.00,VWS V14.01,2013-03-12 01:31:00,
2013-03-11 21:32:00,37.0,24.9,29.47,SSW,202,0.9,1.3,61,0.00,,OVC060,0.00,VWS V14.01,2013-03-12 01:32:00,
2013-03-11 21:33:00,37.0,24.9,29.47,SSW,202,0.9,0.9,61,0.00,,OVC060,0.00,VWS V14.01,2013-03-12 01:33:00,
2013-03-11 21:34:00,37.0,24.9,29.47,South,180,0.9,0.9,61,0.00,,OVC060,0.00,VWS V14.01,2013-03-12 01:34:00,
2013-03-11 21:35:00,37.0,24.9,29.47,ENE,68,2.0,2.0,61,0.00,,OVC060,0.00,VWS V14.01,2013-03-12 01:35:00,
2013-03-11 21:36:00,37.0,24.9,29.47,ENE,68,1.1,2.0,61,0.00,,OVC060,0.00,VWS V14.01,2013-03-12 01:36:00,
2013-03-11 21:37:00,37.0,24.5,29.47,ENE,68,0.9,0.9,60,0.00,,OVC060,0.00,VWS V14.01,2013-03-12 01:37:00,
2013-03-11 21:38:00,37.0,24.5,29.47,ENE,68,0.9,0.9,60,0.00,,OVC060,0.00,VWS V14.01,2013-03-12 01:38:00,
2013-03-11 21:39:00,37.0,24.5,29.47,South,180,0.9,0.9,60,0.00,,OVC060,0.00,VWS V14.01,2013-03-12 01:39:00,
2013-03-11 21:40:00,37.0,24.5,29.47,East,90,1.6,1.6,60,0.00,,OVC060,0.00,VWS V14.01,2013-03-12 01:40:00,
2013-03-11 21:41:00,37.0,24.5,29.47,East,90,1.6,1.6,60,0.00,,OVC060,0.00,VWS V14.01,2013-03-12 01:41:00,
2013-03-11 21:42:00,36.7,24.1,29.47,East,90,2.0,2.0,60,0.00,,OVC060,0.00,VWS V14.01,2013-03-12 01:42:00,
2013-03-11 21:43:00,36.7,24.1,29.47,SSW,202,0.0,2.0,60,0.00,,OVC060,0.00,VWS V14.01,2013-03-12 01:43:00,
2013-03-11 21:44:00,36.7,24.1,29.47,SSE,158,0.0,0.0,60,0.00,,OVC060,0.00,VWS V14.01,2013-03-12 01:44:00,
2013-03-11 21:45:00,36.7,24.1,29.47,SSE,158,0.0,0.0,60,0.00,,OVC060,0.00,VWS V14.01,2013-03-12 01:45:00,
2013-03-11 21:46:00,36.7,24.1,29.47,East,90,0.0,0.0,60,0.00,,OVC060,0.00,VWS V14.01,2013-03-12 01:46:00,
2013-03-11 21:47:00,36.7,24.1,29.47,South,180,0.0,0.0,60,0.00,,OVC060,0.00,VWS V14.01,2013-03-12 01:47:00,
2013-03-11 21:48:00,36.7,24.1,29.47,South,180,0.0,0.0,60,0.00,,OVC060,0.00,VWS V14.01,2013-03-12 01:48:00,
2013-03-11 21:49:00,36.7,24.1,29.47,SSE,158,0.9,0.9,60,0.00,,OVC060,0.00,VWS V14.01,2013-03-12 01:49:00,
2013-03-11 21:50:00,36.7,24.1,29.47,SSE,158,0.0,0.9,60,0.00,,OVC060,0.00,VWS V14.01,2013-03-12 01:50:00,
2013-03-11 21:51:00,36.7,24.1,29.47,SSE,158,0.0,0.0,60,0.00,,OVC060,0.00,VWS V14.01,2013-03-12 01:51:00,
2013-03-11 21:52:00,36.7,24.1,29.47,SE,135,0.0,0.0,60,0.00,,OVC060,0.00,VWS V14.01,2013-03-12 01:52:00,
2013-03-11 21:53:00,36.7,24.1,29.47,SSE,158,0.0,0.0,60,0.00,,OVC060,0.00,VWS V14.01,2013-03-12 01:53:00,
2013-03-11 21:54:00,36.7,24.1,29.47,ESE,112,1.6,1.6,60,0.00,,OVC060,0.00,VWS V14.01,2013-03-12 01:54:00,
2013-03-11 21:55:00,36.7,24.1,29.47,SE,135,0.9,1.6,60,0.00,,OVC060,0.00,VWS V14.01,2013-03-12 01:55:00,
2013-03-11 21:56:00,36.5,24.0,29.47,SE,135,0.0,0.9,60,0.00,,OVC060,0.00,VWS V14.01,2013-03-12 01:56:00,
2013-03-11 21:57:00,36.5,24.0,29.47,ESE,112,0.0,0.0,60,0.00,,OVC060,0.00,VWS V14.01,2013-03-12 01:57:00,
2013-03-11 21:58:00,36.5,24.0,29.47,ESE,112,0.0,0.0,60,0.00,,OVC060,0.00,VWS V14.01,2013-03-12 01:58:00,
2013-03-11 21:59:00,36.5,24.0,29.47,ESE,112,0.0,0.0,60,0.00,,OVC060,0.00,VWS V14.01,2013-03-12 01:59:00,
2013-03-11 22:00:00,36.3,23.8,29.47,ESE,112,0.0,0.0,60,0.00,,OVC060,0.00,VWS V14.01,2013-03-12 02:00:00,
2013-03-11 22:01:00,36.3,24.2,29.47,ESE,112,0.0,0.0,61,0.00,,OVC060,0.00,VWS V14.01,2013-03-12 02:01:00,
2013-03-11 22:02:00,36.3,24.2,29.47,ESE,112,0.0,0.0,61,0.00,,OVC060,0.00,VWS V14.01,2013-03-12 02:02:00,
2013-03-11 22:03:00,36.3,24.2,29.47,ESE,112,0.0,0.0,61,0.00,,OVC060,0.00,VWS V14.01,2013-03-12 02:03:00,
2013-03-11 22:04:00,36.3,24.2,29.47,ESE,112,0.0,0.0,61,0.00,,OVC060,0.00,VWS V14.01,2013-03-12 02:04:00,
2013-03-11 22:05:00,36.3,24.2,29.47,SSE,158,0.0,0.0,61,0.00,,OVC060,0.00,VWS V14.01,2013-03-12 02:05:00,
2013-03-11 22:06:00,36.3,24.2,29.47,SSE,158,0.0,0.0,61,0.00,,OVC060,0.00,VWS V14.01,2013-03-12 02:06:00,
2013-03-11 22:07:00,36.3,24.2,29.47,SE,135,0.0,0.0,61,0.00,,OVC060,0.00,VWS V14.01,2013-03-12 02:07:00,
2013-03-11 22:08:00,36.3,24.2,29.47,SE,135,0.0,0.0,61,0.00,,OVC060,0.00,VWS V14.01,2013-03-12 02:08:00,
2013-03-11 22:09:00,36.3,24.2,29.47,SE,135,0.0,0.0,61,0.00,,OVC060,0.00,VWS V14.01,2013-03-12 02:09:00,
2013-03-11 22:10:00,36.3,24.2,29.47,SE,135,0.0,0.0,61,0.00,,OVC060,0.00,VWS V14.01,2013-03-12 02:10:00,
2013-03-11 22:11:00,36.3,24.2,29.47,SE,135,0.0,0.0,61,0.00,,OVC060,0.00,VWS V14.01,2013-03-12 02:11:00,
2013-03-11 22:12:00,36.3,24.2,29.47,SE,135,0.0,0.0,61,0.00,,OVC060,0.00,VWS V14.01,2013-03-12 02:12:00,
2013-03-11 22:13:00,36.3,24.2,29.47,SE,135,0.0,0.0,61,0.00,,OVC060,0.00,VWS V14.01,2013-03-12 02:13:00,
2013-03-11 22:14:00,35.8,23.7,29.47,SE,135,0.0,0.0,61,0.00,,OVC060,0.00,VWS V14.01,2013-03-12 02:14:00,
2013-03-11 22:15:00,35.8,23.7,29.47,SSE,158,0.0,0.0,61,0.00,,OVC060,0.00,VWS V14.01,2013-03-12 02:15:00,
2013-03-11 22:16:00,35.8,23.7,29.47,West,270,0.0,0.0,61,0.00,,OVC060,0.00,VWS V14.01,2013-03-12 02:16:00,
2013-03-11 22:17:00,35.8,23.7,29.47,West,270,0.0,0.0,61,0.00,,OVC060,0.00,VWS V14.01,2013-03-12 02:17:00,
2013-03-11 22:18:00,35.8,23.7,29.47,West,270,0.0,0.0,61,0.00,,OVC060,0.00,VWS V14.01,2013-03-12 02:18:00,
2013-03-11 22:19:00,35.6,23.5,29.47,West,270,0.0,0.0,61,0.00,,OVC060,0.00,VWS V14.01,2013-03-12 02:19:00,
2013-03-11 22:20:00,35.6,23.5,29.47,West,270,0.0,0.0,61,0.00,,OVC060,0.00,VWS V14.01,2013-03-12 02:20:00,
2013-03-11 22:21:00,35.6,23.5,29.47,NNW,338,0.0,0.0,61,0.00,,OVC060,0.00,VWS V14.01,2013-03-12 02:21:00,
2013-03-11 22:22:00,35.8,24.0,29.47,North,0,0.0,0.0,62,0.00,,OVC060,0.00,VWS V14.01,2013-03-12 02:22:00,
2013-03-11 22:23:00,35.8,24.0,29.47,North,0,0.0,0.0,62,0.00,,OVC060,0.00,VWS V14.01,2013-03-12 02:23:00,
2013-03-11 22:24:00,36.0,24.2,29.47,North,0,0.0,0.0,62,0.00,,OVC060,0.00,VWS V14.01,2013-03-12 02:24:00,
2013-03-11 22:25:00,36.0,24.2,29.47,NNE,22,0.0,0.0,62,0.00,,OVC060,0.00,VWS V14.01,2013-03-12 02:25:00,
2013-03-11 22:26:00,36.0,24.2,29.47,NNE,22,0.0,0.0,62,0.00,,OVC060,0.00,VWS V14.01,2013-03-12 02:26:00,
2013-03-11 22:27:00,36.0,24.2,29.47,NNE,22,0.0,0.0,62,0.00,,OVC060,0.00,VWS V14.01,2013-03-12 02:27:00,
2013-03-11 22:28:00,35.6,23.9,29.47,NNE,22,0.0,0.0,62,0.00,,OVC060,0.00,VWS V14.01,2013-03-12 02:28:00,
2013-03-11 22:29:00,35.6,23.9,29.47,NNE,22,0.0,0.0,62,0.00,,OVC060,0.00,VWS V14.01,2013-03-12 02:29:00,
2013-03-11 22:30:00,35.6,23.9,29.47,NNE,22,0.0,0.0,62,0.00,,OVC060,0.00,VWS V14.01,2013-03-12 02:30:00,
2013-03-11 22:31:00,35.6,23.9,29.47,NNE,22,0.0,0.0,62,0.00,,OVC060,0.00,VWS V14.01,2013-03-12 02:31:00,
2013-03-11 22:32:00,35.6,23.9,29.47,NNE,22,0.0,0.0,62,0.00,,OVC060,0.00,VWS V14.01,2013-03-12 02:32:00,
2013-03-11 22:33:00,35.4,23.7,29.47,NNE,22,0.0,0.0,62,0.00,,OVC060,0.00,VWS V14.01,2013-03-12 02:33:00,
2013-03-11 22:34:00,35.4,23.7,29.47,NNE,22,0.0,0.0,62,0.00,,OVC060,0.00,VWS V14.01,2013-03-12 02:34:00,
2013-03-11 22:35:00,35.4,23.7,29.47,NNE,22,0.0,0.0,62,0.00,,OVC060,0.00,VWS V14.01,2013-03-12 02:35:00,
2013-03-11 22:36:00,35.4,23.7,29.47,NNE,22,0.0,0.0,62,0.00,,OVC060,0.00,VWS V14.01,2013-03-12 02:36:00,
2013-03-11 22:37:00,35.4,24.1,29.47,NNE,22,0.0,0.0,63,0.00,,OVC060,0.00,VWS V14.01,2013-03-12 02:37:00,
2013-03-11 22:38:00,35.4,24.1,29.47,NNE,22,0.0,0.0,63,0.00,,OVC060,0.00,VWS V14.01,2013-03-12 02:38:00,
2013-03-11 22:39:00,35.4,24.1,29.47,West,270,0.0,0.0,63,0.00,,OVC060,0.00,VWS V14.01,2013-03-12 02:39:00,
2013-03-11 22:40:00,35.4,24.1,29.47,West,270,0.0,0.0,63,0.00,,OVC060,0.00,VWS V14.01,2013-03-12 02:40:00,
2013-03-11 22:41:00,35.4,24.1,29.47,WNW,292,0.0,0.0,63,0.00,,OVC060,0.00,VWS V14.01,2013-03-12 02:41:00,
2013-03-11 22:42:00,35.4,24.1,29.47,WNW,292,0.0,0.0,63,0.00,,OVC060,0.00,VWS V14.01,2013-03-12 02:42:00,
2013-03-11 22:43:00,35.4,24.1,29.47,WNW,292,0.0,0.0,63,0.00,,OVC060,0.00,VWS V14.01,2013-03-12 02:43:00,
2013-03-11 22:44:00,35.4,24.1,29.47,North,0,0.0,0.0,63,0.00,,OVC060,0.00,VWS V14.01,2013-03-12 02:44:00,
2013-03-11 22:45:00,35.4,24.1,29.47,North,0,0.0,0.0,63,0.00,,OVC060,0.00,VWS V14.01,2013-03-12 02:45:00,
2013-03-11 22:46:00,35.4,24.1,29.47,North,0,0.0,0.0,63,0.00,,OVC060,0.00,VWS V14.01,2013-03-12 02:46:00,
2013-03-11 22:47:00,35.4,24.5,29.47,North,0,0.0,0.0,64,0.00,,OVC060,0.00,VWS V14.01,2013-03-12 02:47:00,
2013-03-11 22:48:00,35.4,24.5,29.47,North,0,0.0,0.0,64,0.00,,OVC060,0.00,VWS V14.01,2013-03-12 02:48:00,
2013-03-11 22:49:00,35.4,24.1,29.47,North,0,0.0,0.0,63,0.00,,OVC060,0.00,VWS V14.01,2013-03-12 02:49:00,
2013-03-11 22:50:00,35.4,24.1,29.47,North,0,0.0,0.0,63,0.00,,OVC060,0.00,VWS V14.01,2013-03-12 02:50:00,
2013-03-11 22:51:00,35.6,24.3,29.47,North,0,0.0,0.0,63,0.00,,OVC060,0.00,VWS V14.01,2013-03-12 02:51:00,
2013-03-11 22:52:00,35.6,24.3,29.47,North,0,0.0,0.0,63,0.00,,OVC060,0.00,VWS V14.01,2013-03-12 02:52:00,
2013-03-11 22:53:00,35.6,23.9,29.47,North,0,0.0,0.0,62,0.00,,OVC060,0.00,VWS V14.01,2013-03-12 02:53:00,
2013-03-11 22:54:00,35.6,23.9,29.47,North,0,0.0,0.0,62,0.00,,OVC060,0.00,VWS V14.01,2013-03-12 02:54:00,
2013-03-11 22:55:00,35.6,23.9,29.47,North,0,0.0,0.0,62,0.00,,OVC060,0.00,VWS V14.01,2013-03-12 02:55:00,
2013-03-11 22:56:00,35.6,23.9,29.47,North,0,0.0,0.0,62,0.00,,OVC060,0.00,VWS V14.01,2013-03-12 02:56:00,
2013-03-11 22:57:00,35.6,23.9,29.47,ENE,68,0.0,0.0,62,0.00,,OVC060,0.00,VWS V14.01,2013-03-12 02:57:00,
2013-03-11 22:58:00,35.6,23.9,29.47,ENE,68,0.0,0.0,62,0.00,,OVC060,0.00,VWS V14.01,2013-03-12 02:58:00,
2013-03-11 22:59:00,35.6,23.9,29.47,ENE,68,0.0,0.0,62,0.00,,OVC060,0.00,VWS V14.01,2013-03-12 02:59:00,
2013-03-11 23:00:00,35.6,23.9,29.47,ENE,68,0.0,0.0,62,0.00,,OVC060,0.00,VWS V14.01,2013-03-12 03:00:00,
2013-03-11 23:01:00,35.6,23.9,29.47,East,90,0.0,0.0,62,0.00,,OVC060,0.00,VWS V14.01,2013-03-12 03:01:00,
2013-03-11 23:02:00,35.6,23.9,29.47,East,90,0.0,0.0,62,0.00,,OVC060,0.00,VWS V14.01,2013-03-12 03:02:00,
2013-03-11 23:03:00,35.6,24.3,29.47,East,90,0.0,0.0,63,0.00,,OVC060,0.00,VWS V14.01,2013-03-12 03:03:00,
2013-03-11 23:04:00,35.6,24.3,29.47,East,90,0.0,0.0,63,0.00,,OVC060,0.00,VWS V14.01,2013-03-12 03:04:00,
2013-03-11 23:05:00,35.6,24.6,29.47,East,90,0.0,0.0,64,0.00,,OVC060,0.00,VWS V14.01,2013-03-12 03:05:00,
2013-03-11 23:06:00,35.6,24.6,29.47,East,90,0.0,0.0,64,0.00,,OVC060,0.00,VWS V14.01,2013-03-12 03:06:00,
2013-03-11 23:07:00,35.6,24.6,29.47,East,90,0.0,0.0,64,0.00,,OVC060,0.00,VWS V14.01,2013-03-12 03:07:00,
2013-03-11 23:08:00,35.6,24.6,29.47,East,90,0.0,0.0,64,0.00,,OVC060,0.00,VWS V14.01,2013-03-12 03:08:00,
2013-03-11 23:09:00,35.6,24.6,29.47,East,90,0.0,0.0,64,0.00,,OVC060,0.00,VWS V14.01,2013-03-12 03:09:00,
2013-03-11 23:10:00,35.6,24.6,29.47,East,90,0.0,0.0,64,0.00,,OVC060,0.00,VWS V14.01,2013-03-12 03:10:00,
2013-03-11 23:11:00,35.6,24.6,29.47,East,90,0.0,0.0,64,0.00,,OVC060,0.00,VWS V14.01,2013-03-12 03:11:00,
2013-03-11 23:12:00,35.6,24.6,29.47,East,90,0.0,0.0,64,0.00,,OVC060,0.00,VWS V14.01,2013-03-12 03:12:00,
2013-03-11 23:13:00,35.6,24.6,29.47,East,90,0.0,0.0,64,0.00,,OVC060,0.00,VWS V14.01,2013-03-12 03:13:00,
2013-03-11 23:14:00,35.6,24.6,29.47,East,90,0.0,0.0,64,0.00,,OVC060,0.00,VWS V14.01,2013-03-12 03:14:00,
2013-03-11 23:18:00,35.6,24.6,29.47,East,90,0.0,0.0,64,0.00,,OVC060,0.00,VWS V14.01,2013-03-12 03:18:00,
2013-03-11 23:19:00,35.6,24.6,29.47,East,90,0.0,0.0,64,0.00,,OVC060,0.00,VWS V14.01,2013-03-12 03:19:00,
2013-03-11 23:20:00,35.6,24.6,29.47,South,180,0.0,0.0,64,0.00,,OVC060,0.00,VWS V14.01,2013-03-12 03:20:00,
2013-03-11 23:21:00,35.4,24.8,29.47,South,180,0.0,0.0,65,0.00,,OVC060,0.00,VWS V14.01,2013-03-12 03:21:00,
2013-03-11 23:22:00,35.4,24.8,29.47,South,180,0.0,0.0,65,0.00,,OVC060,0.00,VWS V14.01,2013-03-12 03:22:00,
2013-03-11 23:23:00,35.4,24.8,29.47,ESE,112,0.0,0.0,65,0.00,,OVC060,0.00,VWS V14.01,2013-03-12 03:23:00,
2013-03-11 23:24:00,35.6,25.0,29.47,East,90,0.0,0.0,65,0.00,,OVC060,0.00,VWS V14.01,2013-03-12 03:24:00,
2013-03-11 23:25:00,35.6,25.0,29.47,East,90,0.0,0.0,65,0.00,,OVC060,0.00,VWS V14.01,2013-03-12 03:25:00,
2013-03-11 23:26:00,35.4,24.8,29.47,East,90,0.0,0.0,65,0.00,,OVC060,0.00,VWS V14.01,2013-03-12 03:26:00,